• In Spain
  • List of Countries
  • For 7 days
  • Water Temperature
  • Satellite Maps
  • Weather Map
  • Weather Widgets
  • user-avatar
    Login

    Hourly Weather Cochabamba

    Today, 19 September, Wednesday

    Time Temperature Precipitation Wind Pressure Humidity
    00:00 +14°C° 0 mm 2 mps 553 mmHg 68%
    01:00 +14°C° 0 mm 2 mps 553 mmHg 65%
    02:00 +13°C° 0 mm 2 mps 553 mmHg 64%
    03:00 +13°C° 0 mm 2 mps 552 mmHg 60%
    04:00 +12°C° 0 mm 2 mps 552 mmHg 55%
    05:00 +12°C° 0 mm 2 mps 552 mmHg 51%
    06:00 +14°C° 0 mm 2 mps 553 mmHg 42%
    07:00 +16°C° 0 mm 2 mps 554 mmHg 34%
    08:00 +18°C° 0 mm 2 mps 556 mmHg 23%
    09:00 +20°C° 0 mm 2 mps 557 mmHg 20%
    10:00 +23°C° 0 mm 2 mps 557 mmHg 18%
    11:00 +25°C° 0 mm 2 mps 558 mmHg 15%
    12:00 +25°C° 0.1 mm 3 mps 558 mmHg 17%
    13:00 +26°C° 0.1 mm 3 mps 557 mmHg 18%
    14:00 +26°C° 0.1 mm 3 mps 557 mmHg 20%
    15:00 +26°C° 0.4 mm 4 mps 556 mmHg 26%
    16:00 +25°C° 0.4 mm 4 mps 556 mmHg 32%
    17:00 +23°C° 0.4 mm 5 mps 555 mmHg 38%
    18:00 +21°C° 0.1 mm 5 mps 555 mmHg 48%
    19:00 +19°C° 0.1 mm 4 mps 554 mmHg 58%
    20:00 +17°C° 0.1 mm 4 mps 554 mmHg 68%
    21:00 +17°C° 0.1 mm 3 mps 554 mmHg 70%
    22:00 +16°C° 0.1 mm 3 mps 555 mmHg 72%
    23:00 +16°C° 0.1 mm 2 mps 555 mmHg 74%

    Tomorrow, 20 September, Thursday

    Time Temperature Precipitation Wind Pressure Humidity
    00:00 +15°C° 0.1 mm 2 mps 555 mmHg 75%
    01:00 +15°C° 0.1 mm 1 mps 554 mmHg 75%
    02:00 +14°C° 0.1 mm 1 mps 554 mmHg 75%
    03:00 +14°C° 0 mm 1 mps 554 mmHg 75%
    04:00 +13°C° 0 mm 1 mps 554 mmHg 75%
    05:00 +13°C° 0 mm 1 mps 553 mmHg 76%
    06:00 +14°C° 0 mm 1 mps 554 mmHg 68%
    07:00 +15°C° 0 mm 1 mps 555 mmHg 61%
    08:00 +17°C° 0 mm 2 mps 556 mmHg 53%
    09:00 +19°C° 0 mm 2 mps 557 mmHg 46%
    10:00 +20°C° 0 mm 2 mps 557 mmHg 38%
    11:00 +23°C° 0 mm 2 mps 558 mmHg 31%
    12:00 +24°C° 0.3 mm 3 mps 557 mmHg 32%
    13:00 +24°C° 0.3 mm 3 mps 557 mmHg 34%
    14:00 +25°C° 0.3 mm 4 mps 557 mmHg 36%
    15:00 +23°C° 0.5 mm 4 mps 556 mmHg 41%
    16:00 +22°C° 0.5 mm 5 mps 555 mmHg 46%
    17:00 +21°C° 0.5 mm 5 mps 555 mmHg 51%
    18:00 +20°C° 0.4 mm 5 mps 555 mmHg 58%
    19:00 +18°C° 0.4 mm 4 mps 555 mmHg 64%
    20:00 +17°C° 0.4 mm 3 mps 555 mmHg 71%
    21:00 +16°C° 0.1 mm 3 mps 555 mmHg 72%
    22:00 +16°C° 0.1 mm 3 mps 556 mmHg 73%
    23:00 +16°C° 0.1 mm 2 mps 556 mmHg 74%

    Day after tomorrow, 21 September, Friday

    Time Temperature Precipitation Wind Pressure Humidity
    00:00 +15°C° 0 mm 2 mps 555 mmHg 74%
    01:00 +15°C° 0 mm 2 mps 555 mmHg 75%
    02:00 +14°C° 0 mm 1 mps 555 mmHg 75%
    03:00 +14°C° 0 mm 1 mps 554 mmHg 74%
    04:00 +14°C° 0 mm 1 mps 554 mmHg 74%
    05:00 +14°C° 0 mm 1 mps 554 mmHg 73%
    06:00 +15°C° 0 mm 1 mps 555 mmHg 68%
    07:00 +16°C° 0 mm 2 mps 556 mmHg 63%
    08:00 +17°C° 0 mm 2 mps 556 mmHg 57%
    09:00 +18°C° 0 mm 2 mps 557 mmHg 53%
    10:00 +20°C° 0 mm 2 mps 558 mmHg 48%
    11:00 +21°C° 0 mm 2 mps 558 mmHg 44%
    12:00 +21°C° 0.1 mm 2 mps 558 mmHg 44%
    13:00 +22°C° 0.1 mm 3 mps 557 mmHg 44%
    14:00 +22°C° 0.1 mm 3 mps 557 mmHg 45%
    15:00 +22°C° 0.2 mm 4 mps 556 mmHg 47%
    16:00 +21°C° 0.2 mm 4 mps 556 mmHg 49%
    17:00 +21°C° 0.2 mm 4 mps 555 mmHg 51%
    18:00 +20°C° 0.1 mm 4 mps 555 mmHg 57%
    19:00 +18°C° 0.1 mm 4 mps 555 mmHg 63%
    20:00 +17°C° 0.1 mm 3 mps 555 mmHg 68%
    21:00 +17°C° 0 mm 3 mps 555 mmHg 69%
    22:00 +16°C° 0 mm 2 mps 556 mmHg 69%
    23:00 +16°C° 0 mm 2 mps 556 mmHg 70%

    22 September, Saturday

    Time Temperature Precipitation Wind Pressure Humidity
    00:00 +16°C° 0 mm 2 mps 555 mmHg 70%
    01:00 +15°C° 0 mm 1 mps 555 mmHg 69%
    02:00 +15°C° 0 mm 1 mps 554 mmHg 69%
    03:00 +15°C° 0.1 mm 1 mps 554 mmHg 69%
    04:00 +14°C° 0.1 mm 1 mps 554 mmHg 70%
    05:00 +14°C° 0.1 mm 1 mps 553 mmHg 70%
    06:00 +15°C° 0 mm 2 mps 554 mmHg 67%
    07:00 +16°C° 0 mm 2 mps 555 mmHg 64%
    08:00 +17°C° 0 mm 2 mps 556 mmHg 61%
    09:00 +18°C° 0 mm 2 mps 557 mmHg 55%
    10:00 +20°C° 0 mm 3 mps 557 mmHg 50%
    11:00 +21°C° 0 mm 3 mps 558 mmHg 45%
    12:00 +22°C° 0.1 mm 3 mps 557 mmHg 44%
    13:00 +22°C° 0.1 mm 4 mps 557 mmHg 43%
    14:00 +23°C° 0.1 mm 4 mps 556 mmHg 41%
    15:00 +22°C° 0.2 mm 5 mps 555 mmHg 44%
    16:00 +21°C° 0.2 mm 5 mps 555 mmHg 47%
    17:00 +21°C° 0.2 mm 5 mps 554 mmHg 50%
    18:00 +19°C° 0 mm 5 mps 554 mmHg 56%
    19:00 +18°C° 0 mm 4 mps 554 mmHg 61%
    20:00 +17°C° 0 mm 3 mps 554 mmHg 66%
    21:00 +17°C° 0 mm 3 mps 554 mmHg 66%
    22:00 +16°C° 0 mm 2 mps 554 mmHg 67%
    23:00 +16°C° 0 mm 2 mps 555 mmHg 67%

    23 September, Sunday

    Time Temperature Precipitation Wind Pressure Humidity
    00:00 +15°C° 0.1 mm 2 mps 554 mmHg 67%
    01:00 +15°C° 0.1 mm 2 mps 554 mmHg 67%
    02:00 +14°C° 0.1 mm 1 mps 553 mmHg 67%
    03:00 +14°C° 0 mm 1 mps 553 mmHg 68%
    04:00 +14°C° 0 mm 1 mps 553 mmHg 69%
    05:00 +13°C° 0 mm 1 mps 552 mmHg 70%
    06:00 +15°C° 0 mm 2 mps 553 mmHg 64%
    07:00 +16°C° 0 mm 2 mps 555 mmHg 58%
    08:00 +17°C° 0 mm 2 mps 556 mmHg 51%
    09:00 +19°C° 0 mm 2 mps 556 mmHg 47%
    10:00 +20°C° 0 mm 3 mps 557 mmHg 43%
    11:00 +22°C° 0 mm 3 mps 557 mmHg 39%
    12:00 +22°C° 0.3 mm 4 mps 557 mmHg 39%
    13:00 +22°C° 0.3 mm 4 mps 556 mmHg 40%
    14:00 +23°C° 0.3 mm 4 mps 556 mmHg 40%
    15:00 +22°C° 0.5 mm 5 mps 555 mmHg 44%
    16:00 +21°C° 0.5 mm 5 mps 555 mmHg 47%
    17:00 +20°C° 0.5 mm 5 mps 554 mmHg 51%
    18:00 +19°C° 0.2 mm 4 mps 554 mmHg 55%
    19:00 +18°C° 0.2 mm 4 mps 554 mmHg 60%
    20:00 +17°C° 0.2 mm 4 mps 554 mmHg 64%
    21:00 +16°C° 0 mm 3 mps 554 mmHg 65%
    22:00 +16°C° 0 mm 3 mps 554 mmHg 66%
    23:00 +15°C° 0 mm 2 mps 554 mmHg 66%

    24 September, Monday

    Time Temperature Precipitation Wind Pressure Humidity
    00:00 +15°C° 0 mm 2 mps 554 mmHg 67%
    01:00 +15°C° 0 mm 2 mps 554 mmHg 67%
    02:00 +14°C° 0 mm 1 mps 553 mmHg 67%
    03:00 +14°C° 0 mm 1 mps 553 mmHg 67%
    04:00 +14°C° 0 mm 1 mps 553 mmHg 67%
    05:00 +13°C° 0 mm 1 mps 553 mmHg 67%
    06:00 +15°C° 0.1 mm 1 mps 554 mmHg 64%
    07:00 +16°C° 0.1 mm 1 mps 555 mmHg 60%
    08:00 +18°C° 0.1 mm 1 mps 556 mmHg 57%
    09:00 +18°C° 0.4 mm 2 mps 557 mmHg 53%
    10:00 +19°C° 0.4 mm 3 mps 557 mmHg 49%
    11:00 +20°C° 0.4 mm 3 mps 557 mmHg 45%
    12:00 +20°C° 0.6 mm 4 mps 557 mmHg 46%
    13:00 +20°C° 0.6 mm 4 mps 556 mmHg 47%
    14:00 +20°C° 0.6 mm 5 mps 556 mmHg 48%
    15:00 +20°C° 1.1 mm 4 mps 555 mmHg 52%
    16:00 +19°C° 1.1 mm 4 mps 555 mmHg 56%
    17:00 +18°C° 1.1 mm 4 mps 554 mmHg 59%
    18:00 +17°C° 0.9 mm 4 mps 554 mmHg 63%
    19:00 +16°C° 0.9 mm 3 mps 554 mmHg 67%
    20:00 +16°C° 0.9 mm 3 mps 555 mmHg 71%
    21:00 +14°C° 0.5 mm 3 mps 555 mmHg 71%
    22:00 +15°C° 0.5 mm 2 mps 555 mmHg 72%
    23:00 +15°C° 0.5 mm 2 mps 555 mmHg 72%
    Show more